Time,TemperatureF,DewpointF,PressureIn,WindDirection,WindDirectionDegrees,WindSpeedMPH,WindSpeedGustMPH,Humidity,HourlyPrecipIn,Conditions,Clouds,dailyrainin,SolarRadiationWatts/m^2,SoftwareType,DateUTC
2013-12-15 00:02:00,26.0,22.0,-100.00,NW,308,4.0,12.0,83,0.00,,,0.07,0.000000,,2013-12-15 06:02:00,
2013-12-15 00:12:00,26.0,22.0,-100.00,NW,308,4.0,12.0,83,0.00,,,0.07,0.000000,,2013-12-15 06:12:00,
2013-12-15 00:42:00,26.0,22.0,-100.00,WNW,296,4.0,7.0,85,0.00,,,0.07,0.000000,,2013-12-15 06:42:00,
2013-12-15 00:52:00,26.0,22.0,-100.00,WNW,296,4.0,7.0,85,0.00,,,0.07,0.000000,,2013-12-15 06:52:00,
2013-12-15 01:02:00,26.0,22.0,-100.00,WNW,296,4.0,7.0,85,0.00,,,0.07,0.000000,,2013-12-15 07:02:00,
2013-12-15 01:11:00,26.0,22.0,-100.00,WNW,296,4.0,7.0,85,0.00,,,0.07,0.000000,,2013-12-15 07:11:00,
2013-12-15 01:42:00,26.0,20.0,-100.00,WNW,287,4.0,8.0,79,0.00,,,0.05,0.000000,,2013-12-15 07:42:00,
2013-12-15 01:52:00,26.0,20.0,-100.00,WNW,287,4.0,8.0,79,0.00,,,0.05,0.000000,,2013-12-15 07:52:00,
2013-12-15 02:02:00,26.0,20.0,-100.00,WNW,287,4.0,8.0,79,0.00,,,0.05,0.000000,,2013-12-15 08:02:00,
2013-12-15 02:11:00,26.0,20.0,-100.00,WNW,287,4.0,8.0,79,0.00,,,0.05,0.000000,,2013-12-15 08:11:00,
2013-12-15 02:42:00,25.0,19.0,-100.00,WNW,291,5.0,9.0,79,0.00,,,0.03,0.000000,,2013-12-15 08:42:00,
2013-12-15 02:52:00,25.0,19.0,-100.00,WNW,291,5.0,9.0,79,0.00,,,0.03,0.000000,,2013-12-15 08:52:00,
2013-12-15 03:02:00,25.0,19.0,-100.00,WNW,291,5.0,9.0,79,0.00,,,0.03,0.000000,,2013-12-15 09:02:00,
2013-12-15 03:11:00,25.0,19.0,-100.00,WNW,291,5.0,9.0,79,0.00,,,0.03,0.000000,,2013-12-15 09:11:00,
2013-12-15 03:43:00,24.0,20.0,-100.00,WSW,258,3.0,7.0,83,0.00,,,0.02,0.000000,,2013-12-15 09:43:00,
2013-12-15 03:53:00,24.0,20.0,-100.00,WSW,258,3.0,7.0,83,0.00,,,0.02,0.000000,,2013-12-15 09:53:00,
2013-12-15 04:03:00,24.0,20.0,-100.00,WSW,258,3.0,7.0,83,0.00,,,0.02,0.000000,,2013-12-15 10:03:00,
2013-12-15 04:12:00,24.0,20.0,-100.00,WSW,258,3.0,7.0,83,0.00,,,0.02,0.000000,,2013-12-15 10:12:00,
2013-12-15 04:43:00,23.0,19.0,-100.00,WSW,257,4.0,6.0,85,0.00,,,0.01,0.000000,,2013-12-15 10:43:00,
2013-12-15 04:53:00,23.0,19.0,-100.00,WSW,257,4.0,6.0,85,0.00,,,0.01,0.000000,,2013-12-15 10:53:00,
2013-12-15 05:02:00,23.0,19.0,-100.00,WSW,257,4.0,6.0,85,0.00,,,0.01,0.000000,,2013-12-15 11:02:00,
2013-12-15 05:12:00,23.0,19.0,-100.00,WSW,257,4.0,6.0,85,0.00,,,0.01,0.000000,,2013-12-15 11:12:00,
2013-12-15 05:43:00,22.0,19.0,-100.00,WSW,253,5.0,7.0,87,0.00,,,0.01,0.000000,,2013-12-15 11:43:00,
2013-12-15 05:52:00,22.0,19.0,-100.00,WSW,253,5.0,7.0,87,0.00,,,0.01,0.000000,,2013-12-15 11:52:00,
2013-12-15 06:02:00,22.0,19.0,-100.00,WSW,253,5.0,7.0,87,0.00,,,0.01,0.000000,,2013-12-15 12:02:00,
2013-12-15 06:12:00,22.0,19.0,-100.00,WSW,253,5.0,7.0,87,0.00,,,0.01,0.000000,,2013-12-15 12:12:00,
2013-12-15 06:42:00,21.0,18.0,-100.00,SW,218,5.0,7.0,89,0.00,,,0.01,0.000000,,2013-12-15 12:42:00,
2013-12-15 06:52:00,21.0,18.0,-100.00,SW,218,5.0,7.0,89,0.00,,,0.01,0.000000,,2013-12-15 12:52:00,
2013-12-15 07:02:00,21.0,18.0,-100.00,SW,218,5.0,7.0,89,0.00,,,0.01,0.000000,,2013-12-15 13:02:00,
2013-12-15 07:11:00,21.0,18.0,-100.00,SW,218,5.0,7.0,89,0.00,,,0.01,0.000000,,2013-12-15 13:11:00,
2013-12-15 07:42:00,20.0,17.0,-100.00,WSW,245,4.0,7.0,89,0.00,,,0.01,0.000000,,2013-12-15 13:42:00,
2013-12-15 07:52:00,20.0,17.0,-100.00,WSW,245,4.0,7.0,89,0.00,,,0.01,0.000000,,2013-12-15 13:52:00,
2013-12-15 08:02:00,20.0,17.0,-100.00,WSW,245,4.0,7.0,89,0.00,,,0.01,0.000000,,2013-12-15 14:02:00,
2013-12-15 08:11:00,20.0,17.0,-100.00,WSW,245,4.0,7.0,89,0.00,,,0.01,0.000000,,2013-12-15 14:11:00,
2013-12-15 08:42:00,22.0,19.0,-100.00,SSW,198,4.0,7.0,87,0.00,,,0.00,56.000000,,2013-12-15 14:42:00,
2013-12-15 08:52:00,22.0,19.0,-100.00,SSW,198,4.0,7.0,87,0.00,,,0.00,56.000000,,2013-12-15 14:52:00,
2013-12-15 09:02:00,22.0,19.0,-100.00,SSW,198,4.0,7.0,87,0.00,,,0.00,56.000000,,2013-12-15 15:02:00,
2013-12-15 09:12:00,22.0,19.0,-100.00,SSW,198,4.0,7.0,87,0.00,,,0.00,56.000000,,2013-12-15 15:12:00,
2013-12-15 09:13:00,27.0,23.0,-100.00,SSW,211,6.0,10.0,83,0.00,,,0.00,233.000000,,2013-12-15 15:13:00,
2013-12-15 09:43:00,27.0,23.0,-100.00,SSW,211,6.0,10.0,83,0.00,,,0.00,233.000000,,2013-12-15 15:43:00,
2013-12-15 09:53:00,27.0,23.0,-100.00,SSW,211,6.0,10.0,83,0.00,,,0.00,233.000000,,2013-12-15 15:53:00,
2013-12-15 10:04:00,27.0,23.0,-100.00,SSW,211,6.0,10.0,83,0.00,,,0.00,233.000000,,2013-12-15 16:04:00,
2013-12-15 10:43:00,31.0,23.0,-100.00,SSW,211,8.0,12.0,73,0.00,,,0.00,399.000000,,2013-12-15 16:43:00,
2013-12-15 10:53:00,31.0,23.0,-100.00,SSW,211,8.0,12.0,73,0.00,,,0.00,399.000000,,2013-12-15 16:53:00,
2013-12-15 11:02:00,31.0,23.0,-100.00,SSW,211,8.0,12.0,73,0.00,,,0.00,399.000000,,2013-12-15 17:02:00,
2013-12-15 11:12:00,31.0,23.0,-100.00,SSW,211,8.0,12.0,73,0.00,,,0.00,399.000000,,2013-12-15 17:12:00,
2013-12-15 11:43:00,35.0,26.0,-100.00,SSW,205,6.0,12.0,70,0.00,,,0.00,533.000000,,2013-12-15 17:43:00,
2013-12-15 11:52:00,35.0,26.0,-100.00,SSW,205,6.0,12.0,70,0.00,,,0.00,533.000000,,2013-12-15 17:52:00,
2013-12-15 12:02:00,35.0,26.0,-100.00,SSW,205,6.0,12.0,70,0.00,,,0.00,533.000000,,2013-12-15 18:02:00,
2013-12-15 12:12:00,35.0,26.0,-100.00,SSW,205,6.0,12.0,70,0.00,,,0.00,533.000000,,2013-12-15 18:12:00,
2013-12-15 12:42:00,40.0,29.0,-100.00,SW,220,7.0,15.0,65,0.00,,,-99.99,613.000000,,2013-12-15 18:42:00,
2013-12-15 12:52:00,40.0,29.0,-100.00,SW,220,7.0,15.0,65,0.00,,,-99.99,613.000000,,2013-12-15 18:52:00,
2013-12-15 13:02:00,40.0,29.0,-100.00,SW,220,7.0,15.0,65,0.00,,,-99.99,613.000000,,2013-12-15 19:02:00,
2013-12-15 13:11:00,40.0,29.0,-100.00,SW,220,7.0,15.0,65,0.00,,,-99.99,613.000000,,2013-12-15 19:11:00,
2013-12-15 13:42:00,44.0,31.0,-100.00,SW,221,11.0,18.0,60,0.00,,,0.00,605.000000,,2013-12-15 19:42:00,
2013-12-15 13:52:00,44.0,31.0,-100.00,SW,221,11.0,18.0,60,0.00,,,0.00,605.000000,,2013-12-15 19:52:00,
2013-12-15 14:02:00,44.0,31.0,-100.00,SW,221,11.0,18.0,60,0.00,,,0.00,605.000000,,2013-12-15 20:02:00,
2013-12-15 14:11:00,44.0,31.0,-100.00,SW,221,11.0,18.0,60,0.00,,,0.00,605.000000,,2013-12-15 20:11:00,
2013-12-15 14:42:00,46.0,31.0,-100.00,SW,234,15.0,21.0,55,0.00,,,0.00,467.000000,,2013-12-15 20:42:00,
2013-12-15 14:52:00,46.0,31.0,-100.00,SW,234,15.0,21.0,55,0.00,,,0.00,467.000000,,2013-12-15 20:52:00,
2013-12-15 15:02:00,46.0,31.0,-100.00,SW,234,15.0,21.0,55,0.00,,,0.00,467.000000,,2013-12-15 21:02:00,
2013-12-15 15:11:00,46.0,31.0,-100.00,SW,234,15.0,21.0,55,0.00,,,0.00,467.000000,,2013-12-15 21:11:00,
2013-12-15 15:43:00,46.0,30.0,-100.00,WSW,240,11.0,21.0,54,0.00,,,0.00,249.000000,,2013-12-15 21:43:00,
2013-12-15 15:54:00,46.0,30.0,-100.00,WSW,240,11.0,21.0,54,0.00,,,0.00,249.000000,,2013-12-15 21:54:00,
2013-12-15 16:03:00,46.0,30.0,-100.00,WSW,240,11.0,21.0,54,0.00,,,0.00,249.000000,,2013-12-15 22:03:00,
2013-12-15 16:12:00,46.0,30.0,-100.00,WSW,240,11.0,21.0,54,0.00,,,0.00,249.000000,,2013-12-15 22:12:00,
2013-12-15 16:43:00,46.0,31.0,-100.00,SW,223,5.0,14.0,56,0.00,,,0.00,106.000000,,2013-12-15 22:43:00,
2013-12-15 16:53:00,46.0,31.0,-100.00,SW,223,5.0,14.0,56,0.00,,,0.00,106.000000,,2013-12-15 22:53:00,
2013-12-15 17:02:00,46.0,31.0,-100.00,SW,223,5.0,14.0,56,0.00,,,0.00,106.000000,,2013-12-15 23:02:00,
2013-12-15 17:12:00,46.0,31.0,-100.00,SW,223,5.0,14.0,56,0.00,,,0.00,106.000000,,2013-12-15 23:12:00,
2013-12-15 17:42:00,44.0,31.0,-100.00,SW,219,6.0,9.0,61,0.00,,,0.00,41.000000,,2013-12-15 23:42:00,
2013-12-15 17:52:00,44.0,31.0,-100.00,SW,219,6.0,9.0,61,0.00,,,0.00,41.000000,,2013-12-15 23:52:00,
2013-12-15 18:02:00,44.0,31.0,-100.00,SW,219,6.0,9.0,61,0.00,,,0.00,41.000000,,2013-12-16 00:02:00,
2013-12-15 18:11:00,44.0,31.0,-100.00,SW,219,6.0,9.0,61,0.00,,,0.00,41.000000,,2013-12-16 00:11:00,
2013-12-15 18:42:00,41.0,31.0,-100.00,SSW,205,5.0,9.0,68,0.00,,,0.00,0.000000,,2013-12-16 00:42:00,
2013-12-15 18:52:00,41.0,31.0,-100.00,SSW,205,5.0,9.0,68,0.00,,,0.00,0.000000,,2013-12-16 00:52:00,
2013-12-15 19:02:00,41.0,31.0,-100.00,SSW,205,5.0,9.0,68,0.00,,,0.00,0.000000,,2013-12-16 01:02:00,
2013-12-15 19:11:00,41.0,31.0,-100.00,SSW,205,5.0,9.0,68,0.00,,,0.00,0.000000,,2013-12-16 01:11:00,
2013-12-15 19:42:00,41.0,32.0,-100.00,SSW,192,5.0,7.0,70,0.00,,,0.00,0.000000,,2013-12-16 01:42:00,
2013-12-15 19:52:00,41.0,32.0,-100.00,SSW,192,5.0,7.0,70,0.00,,,0.00,0.000000,,2013-12-16 01:52:00,
2013-12-15 20:02:00,41.0,32.0,-100.00,SSW,192,5.0,7.0,70,0.00,,,0.00,0.000000,,2013-12-16 02:02:00,
2013-12-15 20:11:00,41.0,32.0,-100.00,SSW,192,5.0,7.0,70,0.00,,,0.00,0.000000,,2013-12-16 02:11:00,
2013-12-15 20:42:00,42.0,33.0,-100.00,SSW,209,6.0,10.0,69,0.00,,,0.00,0.000000,,2013-12-16 02:42:00,
2013-12-15 20:52:00,42.0,33.0,-100.00,SSW,209,6.0,10.0,69,0.00,,,0.00,0.000000,,2013-12-16 02:52:00,
2013-12-15 21:01:00,42.0,33.0,-100.00,SSW,209,6.0,10.0,69,0.00,,,0.00,0.000000,,2013-12-16 03:01:00,
2013-12-15 21:11:00,42.0,33.0,-100.00,SSW,209,6.0,10.0,69,0.00,,,0.00,0.000000,,2013-12-16 03:11:00,
2013-12-15 21:13:00,44.0,31.0,-100.00,SW,226,11.0,17.0,60,0.00,,,0.00,0.000000,,2013-12-16 03:13:00,
2013-12-15 21:43:00,44.0,31.0,-100.00,SW,226,11.0,17.0,60,0.00,,,0.00,0.000000,,2013-12-16 03:43:00,
2013-12-15 21:54:00,44.0,31.0,-100.00,SW,226,11.0,17.0,60,0.00,,,0.00,0.000000,,2013-12-16 03:54:00,
2013-12-15 22:03:00,44.0,31.0,-100.00,SW,226,11.0,17.0,60,0.00,,,0.00,0.000000,,2013-12-16 04:03:00,
2013-12-15 22:43:00,44.0,31.0,-100.00,SW,226,11.0,20.0,61,0.00,,,0.00,0.000000,,2013-12-16 04:43:00,
2013-12-15 22:53:00,44.0,31.0,-100.00,SW,226,11.0,20.0,61,0.00,,,0.00,0.000000,,2013-12-16 04:53:00,
2013-12-15 23:02:00,44.0,31.0,-100.00,SW,226,11.0,20.0,61,0.00,,,0.00,0.000000,,2013-12-16 05:02:00,
2013-12-15 23:12:00,44.0,31.0,-100.00,SW,226,11.0,20.0,61,0.00,,,0.00,0.000000,,2013-12-16 05:12:00,
2013-12-15 23:43:00,43.0,30.0,-100.00,SW,227,11.0,19.0,60,0.00,,,0.00,0.000000,,2013-12-16 05:43:00,
2013-12-15 23:53:00,43.0,30.0,-100.00,SW,227,11.0,19.0,60,0.00,,,0.00,0.000000,,2013-12-16 05:53:00,